Regional Weather Roundup
Issued by NWS

Home | Current Version | Previous Version | Graphics & Text | Print | Product List | Glossary On
Versions: 1 2 3 4 5 6 7 8 9 10 11 12 13 14 15 16 17 18 19 20 21 22 23 24 25 26 27 28 29 30 31 32 33 34 35 36 37 38 39 40 41 42 43 44 45 46 47 48 49 50
000
ASUS43 KIND 011159
RWRIN

WEATHER ROUNDUP FOR INDIANA
NATIONAL WEATHER SERVICE INDIANAPOLIS IN
800 AM EDT WED OCT 01 2014

NOTE: "FAIR" INDICATES FEW OR NO CLOUDS BELOW 12,000 FEET WITH NO
SIGNIFICANT WEATHER AND/OR OBSTRUCTIONS TO VISIBILITY.

* - STATION DOES NOT REPORT WEATHER SUCH AS PRECIPITATION OR FOG.

+ - STATION NOT QUALITY CONTROLLED BY THE NATIONAL WEATHER SERVICE.
    USE DATA WITH CAUTION...ESPECIALLY DEWPOINT AND RELATIVE
    HUMIDITY OBSERVATIONS.

INZ001>003-010>013-019-020-011300-
NORTHWEST INDIANA

CITY           SKY/WX    TMP DP  RH WIND       PRES   REMARKS
GARY /AIRPORT/ PTCLDY    46  43  87 E6        30.03R
KNOX *+        CLEAR     40  38  95 E3        30.02R
VALPARAISO     FOG       43  43 100 E5        30.03R VSB 1/4

$$

LMZ046-743>745-011300-
SOUTHERN LAKE MICHIGAN

STATION/POSITION TIME  TEMP WIND        PRES
                       AIR  DIR/SP/G
                 (UTC) (F)  (DEG/KT/KT) (MB)
MICHIGAN CITY    1100   53   90/  4/  5   N/A

$$

INZ004-005-014>016-021>024-011300-
NORTH CENTRAL INDIANA

CITY           SKY/WX    TMP DP  RH WIND       PRES   REMARKS
SOUTH BEND     NOT AVBL
WARSAW +       FOG       43  43 100 CALM      30.04R VSB 1/2

$$

INZ006>009-017-018-025>027-011300-
NORTHEAST INDIANA

CITY           SKY/WX    TMP DP  RH WIND       PRES   REMARKS
ANGOLA *+      CLEAR     46  45  93 CALM      30.04R
FORT WAYNE     CLOUDY    50  48  93 E3        30.05R FOG
6HR MIN TEMP:  45; 6HR MAX TEMP:  52;


$$

INZ028-029-035-036-043>045-051>053-011300-
WEST CENTRAL INDIANA

CITY           SKY/WX    TMP DP  RH WIND       PRES   REMARKS
GREENCASTLE +  CLEAR     46  45  93 SE3       30.01R
LAFAYETTE      CLEAR     44  43  96 E5        30.01R
6HR MIN TEMP:  43; 6HR MAX TEMP:  48;

TERRE HAUTE    PTCLDY    50  47  89 E5        29.99R
6HR MIN TEMP:  49; 6HR MAX TEMP:  54;


$$

INZ030>032-037>040-046>048-054>057-064-065-011300-
CENTRAL INDIANA

CITY           SKY/WX    TMP DP  RH WIND       PRES   REMARKS
FRANKFORT +    CLEAR    N/A N/A N/A E3        30.02S HAZE
INDIANAPOLIS   PTCLDY    50  45  83 E7        30.01R
6HR MIN TEMP:  49; 6HR MAX TEMP:  53;

-EAGLE CREEK   CLEAR     48  44  86 E3        30.01R
6HR MIN TEMP:  47; 6HR MAX TEMP:  50;

KOKOMO *+      CLOUDY    46  45  93 SE5       30.04R VSB<1/4
MT COMFORT *+  CLEAR     41 N/A N/A CALM      30.02R
SHELBYVILLE    CLEAR     45  42  89 NE3       30.01R
6HR MIN TEMP:  45; 6HR MAX TEMP:  50;

ZIONSVILLE +   CLEAR     45  42  91 E3        30.02S FOG
6HR MIN TEMP:  41; 6HR MAX TEMP:  46;


$$

INZ033-034-041-042-049-050-058-059-011300-
EAST CENTRAL INDIANA

CITY           SKY/WX    TMP DP  RH WIND       PRES   REMARKS
MUNCIE         FOG       48  47  96 E7        30.03R VSB 1/4
6HR MIN TEMP:  41; 6HR MAX TEMP:  48;


$$

INZ060-061-067>069-081>083-085>088-011300-
SOUTHWEST INDIANA

CITY           SKY/WX    TMP DP  RH WIND       PRES   REMARKS
EVANSVILLE     CLEAR     59  57  93 NE5       29.96R FOG
6HR MIN TEMP:  59; 6HR MAX TEMP:  64;


$$

INZ062-063-066-070>080-084-089>092-011300-
SOUTH CENTRAL AND SOUTHEAST INDIANA

CITY           SKY/WX    TMP DP  RH WIND       PRES   REMARKS
BLOOMINGTON    CLEAR     51  48  89 E3        30.00R
6HR MIN TEMP:  51; 6HR MAX TEMP:  56;


$$




USA.gov is the U.S. government's official web portal to all federal, state and local government web resources and services.